Find Starlink 30467

NORAD ID: 57895 Int'l Des: 2023-146 Owner: SPXS Country: US Constellation: starlink operational
LEOCIRCULAR

Live-Position

3D-Globus wird geladen...

Über Starlink 30467

Beschreibung wird geladen...

Nächste Überflüge

Passes for default location (London). Set your location on the main map for personalized predictions.

Höhenverlauf

Loading altitude history...

Zweizeiliger Elementsatz

1 57895U 23146E 26126.32581455 -.00001497 00000-0 -44915-4 0 9990
2 57895 43.0026 348.4789 0001645 275.2918 84.7746 15.27564830145865
Epoch: 6. Mai 2026 • Age: 17 hours

Aktueller Status

Höhe 484.9 km
Geschwindigkeit 7.62 km/s
Subsatellitenpunkt -11.25°S, 53.57°W
Startdatum 20. Sept. 2023
Alter 2.6 years
Typ internet

Technische Details

Klassifizierung Payload
Masse 730.00 kg
Trockenmasse 700.00 kg
Gesamtmasse 730.00 kg
Länge 0.30 m
Durchmesser 4.10 m
Spannweite 29.00 m
Form Box + pan
Hersteller SPXS
Bus-Typ Starlink V2M
Phasenstatus In Orbit
Besitzer/Staat SPXS/US

Most Searched